| time (UTC) | temp C | wind direction | speed KPH | gust KPH | rain 1hr cm | rain 24hr cm | rain mn cm | humidity % | barometer mb |
| 20260903075734 | 28 | 289 | 0.0 | 4.8 | 0.00 | 0.00 | 0.00 | 65 | 1014.8 |
| 20260903075229 | 28 | 248 | 1.6 | 4.8 | 0.00 | 0.00 | 0.00 | 65 | 1015.0 |
| 20260903074728 | 28 | 28 | 3.2 | 6.4 | 0.00 | 0.00 | 0.00 | 65 | 1015.1 |
| 20260903074223 | 28 | 232 | 1.6 | 4.8 | 0.00 | 0.00 | 0.00 | 64 | 1014.9 |
| 20260903073718 | 28 | 91 | 3.2 | 6.4 | 0.00 | 0.00 | 0.00 | 64 | 1015.1 |
| 20260903073213 | 28 | 232 | 1.6 | 1.6 | 0.00 | 0.00 | 0.00 | 64 | 1015.1 |
| 20260903072709 | 28 | 136 | 1.6 | 1.6 | 0.00 | 0.00 | 0.00 | 63 | 1015.0 |
| 20260903072206 | 28 | 244 | 3.2 | 6.4 | 0.00 | 0.00 | 0.00 | 63 | 1015.1 |
| 20260903071702 | 28 | 159 | 1.6 | 4.8 | 0.00 | 0.00 | 0.00 | 63 | 1015.0 |
| 20260903071157 | 28 | 242 | 3.2 | 4.8 | 0.00 | 0.00 | 0.00 | 63 | 1015.1 |
| 20260903070656 | 28 | 48 | 0.0 | 1.6 | 0.00 | 0.00 | 0.00 | 62 | 1015.2 |
| 20260903070152 | 28 | 59 | 3.2 | 4.8 | 0.00 | 0.00 | 0.00 | 62 | 1015.1 |
| 20260903065647 | 28 | 71 | 1.6 | 3.2 | 0.00 | 0.00 | 0.00 | 62 | 1015.0 |
| 20260903065147 | 28 | 135 | 0.0 | 6.4 | 0.00 | 0.00 | 0.00 | 61 | 1015.1 |
| 20260903064646 | 29 | 91 | 1.6 | 4.8 | 0.00 | 0.00 | 0.00 | 61 | 1014.9 |
| 20260903064141 | 29 | 214 | 4.8 | 11.3 | 0.00 | 0.00 | 0.00 | 60 | 1015.1 |
| 20260903063638 | 29 | 354 | 0.0 | 11.3 | 0.00 | 0.00 | 0.00 | 59 | 1015.1 |
| 20260903063138 | 29 | 245 | 3.2 | 9.7 | 0.00 | 0.00 | 0.00 | 59 | 1014.9 |
| 20260903062633 | 29 | 43 | 1.6 | 4.8 | 0.00 | 0.00 | 0.00 | 58 | 1015.0 |
| 20260903062129 | 30 | 354 | 1.6 | 16.1 | 0.00 | 0.00 | 0.00 | 58 | 1014.9 |
| 20260903061624 | 30 | 64 | 3.2 | 4.8 | 0.00 | 0.00 | 0.00 | 58 | 1015.0 |
| 20260903061123 | 30 | 137 | 3.2 | 4.8 | 0.00 | 0.00 | 0.00 | 58 | 1015.1 |
| 20260903060618 | 30 | 153 | 4.8 | 9.7 | 0.00 | 0.00 | 0.00 | 57 | 1015.0 |
| 20260903060114 | 30 | 46 | 1.6 | 12.9 | 0.00 | 0.00 | 0.00 | 57 | 1015.1 |
| 20260903055611 | 30 | 325 | 1.6 | 11.3 | 0.00 | 0.00 | 0.00 | 57 | 1014.8 |
| 20260903055109 | 30 | 139 | 1.6 | 4.8 | 0.00 | 0.00 | 0.00 | 57 | 1014.9 |
| 20260903054604 | 30 | 73 | 3.2 | 3.2 | 0.00 | 0.00 | 0.00 | 57 | 1015.0 |
| 20260903054100 | 30 | 104 | 3.2 | 9.7 | 0.00 | 0.00 | 0.00 | 57 | 1014.9 |
| 20260903053556 | 30 | 194 | 1.6 | 9.7 | 0.00 | 0.00 | 0.00 | 56 | 1014.9 |
| 20260903053052 | 30 | 61 | 3.2 | 9.7 | 0.00 | 0.00 | 0.00 | 56 | 1015.0 |
| 20260903052547 | 30 | 231 | 6.4 | 14.5 | 0.00 | 0.00 | 0.00 | 55 | 1014.8 |
| 20260903052043 | 30 | 271 | 3.2 | 6.4 | 0.00 | 0.00 | 0.00 | 54 | 1014.9 |
| 20260903051542 | 30 | 346 | 6.4 | 6.4 | 0.00 | 0.00 | 0.00 | 54 | 1014.8 |
| 20260903051038 | 30 | 11 | 4.8 | 11.3 | 0.00 | 0.00 | 0.00 | 54 | 1014.9 |
| 20260903050537 | 31 | 24 | 1.6 | 4.8 | 0.00 | 0.00 | 0.00 | 53 | 1014.8 |
| 20260903050033 | 31 | 76 | 3.2 | 3.2 | 0.00 | 0.00 | 0.00 | 53 | 1014.6 |
| 20260903045532 | 31 | 43 | 3.2 | 4.8 | 0.00 | 0.00 | 0.00 | 52 | 1014.8 |
| 20260903045029 | 31 | 234 | 0.0 | 4.8 | 0.00 | 0.00 | 0.00 | 52 | 1014.7 |
| 20260903044525 | 31 | 267 | 1.6 | 3.2 | 0.00 | 0.00 | 0.00 | 52 | 1014.8 |
| 20260903044020 | 31 | 107 | 0.0 | 4.8 | 0.00 | 0.00 | 0.00 | 51 | 1014.7 |
| 20260903043516 | 31 | 318 | 3.2 | 4.8 | 0.00 | 0.00 | 0.00 | 51 | 1014.7 |
| 20260903043015 | 31 | 144 | 3.2 | 6.4 | 0.00 | 0.00 | 0.00 | 50 | 1014.7 |
| 20260903042510 | 31 | 281 | 4.8 | 6.4 | 0.00 | 0.00 | 0.00 | 50 | 1014.8 |
| 20260903042006 | 31 | 52 | 3.2 | 4.8 | 0.00 | 0.00 | 0.00 | 50 | 1014.9 |
| 20260903041502 | 31 | 72 | 3.2 | 11.3 | 0.00 | 0.00 | 0.00 | 50 | 1014.8 |
| 20260903040958 | 31 | 138 | 3.2 | 4.8 | 0.00 | 0.00 | 0.00 | 50 | 1014.8 |
| 20260903040456 | 31 | 251 | 3.2 | 9.7 | 0.00 | 0.00 | 0.00 | 50 | 1014.7 |
| 20260903035953 | 31 | 284 | 1.6 | 6.4 | 0.00 | 0.00 | 0.00 | 49 | 1014.6 |
| 20260903035448 | 31 | 300 | 8.0 | 12.9 | 0.00 | 0.00 | 0.00 | 49 | 1014.7 |
| 20260903034943 | 31 | 230 | 3.2 | 4.8 | 0.00 | 0.00 | 0.00 | 49 | 1014.6 |
| 20260903034437 | 31 | 207 | 3.2 | 6.4 | 0.00 | 0.00 | 0.00 | 48 | 1014.9 |
| 20260903033933 | 32 | 302 | 8.0 | 11.3 | 0.00 | 0.00 | 0.00 | 48 | 1014.6 |
| 20260903033429 | 32 | 46 | 0.0 | 11.3 | 0.00 | 0.00 | 0.00 | 48 | 1014.6 |
| 20260903032929 | 32 | 52 | 6.4 | 9.7 | 0.00 | 0.00 | 0.00 | 47 | 1014.8 |
| 20260903032424 | 32 | 152 | 3.2 | 11.3 | 0.00 | 0.00 | 0.00 | 47 | 1014.8 |
| 20260903031919 | 32 | 211 | 0.0 | 4.8 | 0.00 | 0.00 | 0.00 | 47 | 1014.8 |
| 20260903031419 | 32 | 0 | 0.0 | 3.2 | 0.00 | 0.00 | 0.00 | 47 | 1014.6 |
| 20260903030914 | 32 | 241 | 0.0 | 6.4 | 0.00 | 0.00 | 0.00 | 46 | 1014.8 |
| 20260903030410 | 32 | 280 | 3.2 | 3.2 | 0.00 | 0.00 | 0.00 | 46 | 1014.7 |
| 20260903025906 | 32 | 253 | 1.6 | 6.4 | 0.00 | 0.00 | 0.00 | 46 | 1014.6 |
| 20260903025401 | 32 | 47 | 0.0 | 4.8 | 0.00 | 0.00 | 0.00 | 45 | 1014.8 |
| 20260903024856 | 32 | 43 | 4.8 | 6.4 | 0.00 | 0.00 | 0.00 | 45 | 1014.7 |
| 20260903024350 | 32 | 32 | 3.2 | 3.2 | 0.00 | 0.00 | 0.00 | 45 | 1014.7 |
| 20260903023845 | 32 | 302 | 3.2 | 3.2 | 0.00 | 0.00 | 0.00 | 45 | 1014.7 |
| 20260903023341 | 32 | 70 | 3.2 | 4.8 | 0.00 | 0.00 | 0.00 | 44 | 1014.6 |
| 20260903022836 | 32 | 303 | 4.8 | 6.4 | 0.00 | 0.00 | 0.00 | 44 | 1014.4 |
| 20260903022335 | 33 | 176 | 1.6 | 3.2 | 0.00 | 0.00 | 0.00 | 44 | 1014.4 |
| 20260903021834 | 33 | 74 | 3.2 | 6.4 | 0.00 | 0.00 | 0.00 | 44 | 1014.5 |
| 20260903021330 | 33 | 53 | 1.6 | 4.8 | 0.00 | 0.00 | 0.00 | 44 | 1014.3 |
| 20260903020830 | 33 | 104 | 3.2 | 6.4 | 0.00 | 0.00 | 0.00 | 44 | 1014.2 |
| 20260903020325 | 33 | 320 | 1.6 | 4.8 | 0.00 | 0.00 | 0.00 | 44 | 1014.2 |
| 20260903015819 | 33 | 224 | 0.0 | 6.4 | 0.00 | 0.00 | 0.00 | 44 | 1014.1 |
| 20260903015315 | 33 | 155 | 1.6 | 1.6 | 0.00 | 0.00 | 0.00 | 44 | 1014.1 |
| 20260903014810 | 33 | 56 | 0.0 | 1.6 | 0.00 | 0.00 | 0.00 | 44 | 1013.9 |
| 20260903014309 | 33 | 23 | 0.0 | 1.6 | 0.00 | 0.00 | 0.00 | 44 | 1014.0 |
| 20260903013804 | 33 | 250 | 1.6 | 6.4 | 0.00 | 0.00 | 0.00 | 43 | 1013.8 |
| 20260903013303 | 33 | 342 | 0.0 | 3.2 | 0.00 | 0.00 | 0.00 | 43 | 1013.8 |
| 20260903012803 | 34 | 226 | 0.0 | 3.2 | 0.00 | 0.00 | 0.00 | 43 | 1013.7 |
| 20260903012257 | 34 | 208 | 0.0 | 1.6 | 0.00 | 0.00 | 0.00 | 43 | 1013.7 |
| 20260903011752 | 34 | 273 | 1.6 | 3.2 | 0.00 | 0.00 | 0.00 | 42 | 1013.5 |
| 20260903011251 | 34 | 302 | 0.0 | 1.6 | 0.00 | 0.00 | 0.00 | 42 | 1013.7 |
| 20260903010746 | 34 | 168 | 0.0 | 3.2 | 0.00 | 0.00 | 0.00 | 42 | 1013.6 |
| 20260903010241 | 35 | 138 | 3.2 | 4.8 | 0.00 | 0.00 | 0.00 | 41 | 1013.5 |
| 20260903005740 | 35 | 34 | 1.6 | 3.2 | 0.00 | 0.00 | 0.00 | 41 | 1013.6 |
| 20260903005234 | 35 | 249 | 1.6 | 6.4 | 0.00 | 0.00 | 0.00 | 40 | 1013.4 |
| 20260903004725 | 35 | 27 | 1.6 | 3.2 | 0.00 | 0.00 | 0.00 | 40 | 1013.4 |
| 20260903004221 | 35 | 316 | 3.2 | 6.4 | 0.00 | 0.00 | 0.00 | 40 | 1013.5 |
| 20260903003715 | 35 | 22 | 1.6 | 3.2 | 0.00 | 0.00 | 0.00 | 40 | 1013.5 |
| 20260903003211 | 35 | 23 | 3.2 | 6.4 | 0.00 | 0.00 | 0.00 | 39 | 1013.4 |
| 20260903002706 | 35 | 46 | 3.2 | 6.4 | 0.00 | 0.00 | 0.00 | 39 | 1013.5 |
| 20260903002200 | 35 | 114 | 1.6 | 4.8 | 0.00 | 0.00 | 0.00 | 39 | 1013.3 |
| 20260903001655 | 36 | 215 | 1.6 | 6.4 | 0.00 | 0.00 | 0.00 | 39 | 1013.4 |
| 20260903001155 | 36 | 247 | 1.6 | 3.2 | 0.00 | 0.00 | 0.00 | 39 | 1013.4 |
| 20260903000650 | 36 | 322 | 0.0 | 3.2 | 0.00 | 0.00 | 0.00 | 39 | 1013.3 |
| 20260903000144 | 36 | 58 | 3.2 | 9.7 | 0.00 | 0.00 | 0.00 | 38 | 1013.5 |
| 20260902235642 | 36 | 229 | 6.4 | 9.7 | 0.00 | 0.00 | 0.00 | 38 | 1013.3 |
| 20260902235132 | 36 | 284 | 0.0 | 4.8 | 0.00 | 0.00 | 0.00 | 37 | 1013.3 |
| 20260902234625 | 36 | 283 | 1.6 | 3.2 | 0.00 | 0.00 | 0.00 | 37 | 1013.3 |
| 20260902234124 | 36 | 276 | 1.6 | 4.8 | 0.00 | 0.00 | 0.00 | 37 | 1013.4 |
| 20260902233619 | 36 | 152 | 6.4 | 9.7 | 0.00 | 0.00 | 0.00 | 37 | 1013.4 |
| 20260902233113 | 36 | 320 | 4.8 | 6.4 | 0.00 | 0.00 | 0.00 | 37 | 1013.5 |
| 20260902232608 | 37 | 40 | 6.4 | 9.7 | 0.00 | 0.00 | 0.00 | 37 | 1013.5 |
| 20260902232102 | 37 | 256 | 1.6 | 12.9 | 0.00 | 0.00 | 0.00 | 36 | 1013.5 |
| 20260902231601 | 37 | 180 | 1.6 | 11.3 | 0.00 | 0.00 | 0.00 | 36 | 1013.4 |
| 20260902231056 | 37 | 183 | 0.0 | 6.4 | 0.00 | 0.00 | 0.00 | 36 | 1013.5 |
| 20260902230551 | 37 | 42 | 3.2 | 3.2 | 0.00 | 0.00 | 0.00 | 36 | 1013.6 |
| 20260902230050 | 37 | 253 | 6.4 | 11.3 | 0.00 | 0.00 | 0.00 | 35 | 1013.6 |
| 20260902225546 | 37 | 87 | 0.0 | 6.4 | 0.00 | 0.00 | 0.00 | 35 | 1013.5 |
| 20260902225044 | 37 | 64 | 1.6 | 4.8 | 0.00 | 0.00 | 0.00 | 34 | 1013.7 |
| 20260902224543 | 37 | 312 | 4.8 | 12.9 | 0.00 | 0.00 | 0.00 | 35 | 1013.6 |
| 20260902224039 | 38 | 253 | 4.8 | 6.4 | 0.00 | 0.00 | 0.00 | 35 | 1013.6 |
| 20260902223535 | 38 | 358 | 3.2 | 4.8 | 0.00 | 0.00 | 0.00 | 34 | 1013.5 |
| 20260902223034 | 38 | 44 | 1.6 | 4.8 | 0.00 | 0.00 | 0.00 | 34 | 1013.6 |
| 20260902222533 | 38 | 310 | 1.6 | 6.4 | 0.00 | 0.00 | 0.00 | 33 | 1013.7 |
| 20260902222033 | 38 | 15 | 6.4 | 11.3 | 0.00 | 0.00 | 0.00 | 33 | 1013.9 |
| 20260902221533 | 38 | 291 | 1.6 | 1.6 | 0.00 | 0.00 | 0.00 | 34 | 1013.9 |
| 20260902221027 | 39 | 342 | 0.0 | 3.2 | 0.00 | 0.00 | 0.00 | 33 | 1013.7 |
| 20260902220523 | 38 | 74 | 3.2 | 11.3 | 0.00 | 0.00 | 0.00 | 33 | 1013.7 |
| 20260902220017 | 39 | 272 | 3.2 | 4.8 | 0.00 | 0.00 | 0.00 | 32 | 1013.7 |
| 20260902215514 | 39 | 238 | 4.8 | 6.4 | 0.00 | 0.00 | 0.00 | 33 | 1013.8 |
| 20260902215009 | 38 | 273 | 3.2 | 11.3 | 0.00 | 0.00 | 0.00 | 34 | 1013.8 |
| 20260902214508 | 38 | 299 | 1.6 | 9.7 | 0.00 | 0.00 | 0.00 | 35 | 1014.0 |
| 20260902214007 | 38 | 38 | 4.8 | 4.8 | 0.00 | 0.00 | 0.00 | 35 | 1014.0 |
| 20260902213503 | 38 | 308 | 1.6 | 6.4 | 0.00 | 0.00 | 0.00 | 36 | 1014.0 |
| 20260902213002 | 37 | 266 | 3.2 | 12.9 | 0.00 | 0.00 | 0.00 | 36 | 1013.9 |
| 20260902212458 | 37 | 273 | 9.7 | 14.5 | 0.00 | 0.00 | 0.00 | 35 | 1014.1 |
| 20260902211954 | 37 | 17 | 1.6 | 6.4 | 0.00 | 0.00 | 0.00 | 37 | 1014.3 |
| 20260902211450 | 37 | 263 | 8.0 | 12.9 | 0.00 | 0.00 | 0.00 | 37 | 1014.3 |
| 20260902210945 | 38 | 28 | 3.2 | 9.7 | 0.00 | 0.00 | 0.00 | 36 | 1014.4 |
| 20260902210440 | 38 | 48 | 1.6 | 12.9 | 0.00 | 0.00 | 0.00 | 35 | 1014.3 |
| 20260902205938 | 37 | 28 | 4.8 | 9.7 | 0.00 | 0.00 | 0.00 | 37 | 1014.4 |
| 20260902205433 | 38 | 57 | 6.4 | 14.5 | 0.00 | 0.00 | 0.00 | 37 | 1014.6 |
| 20260902204929 | 38 | 126 | 4.8 | 17.7 | 0.00 | 0.00 | 0.00 | 36 | 1014.4 |
| 20260902204428 | 38 | 19 | 6.4 | 9.7 | 0.00 | 0.00 | 0.00 | 35 | 1014.5 |
| 20260902203924 | 38 | 269 | 8.0 | 9.7 | 0.00 | 0.00 | 0.00 | 34 | 1014.6 |
| 20260902203419 | 37 | 79 | 1.6 | 6.4 | 0.00 | 0.00 | 0.00 | 35 | 1014.6 |
| 20260902202918 | 38 | 132 | 3.2 | 6.4 | 0.00 | 0.00 | 0.00 | 34 | 1014.7 |
| 20260902202414 | 38 | 42 | 8.0 | 11.3 | 0.00 | 0.00 | 0.00 | 36 | 1014.6 |
| 20260902201911 | 37 | 58 | 1.6 | 9.7 | 0.00 | 0.00 | 0.00 | 39 | 1015.0 |
| 20260902201411 | 38 | 294 | 4.8 | 6.4 | 0.00 | 0.00 | 0.00 | 37 | 1015.1 |
| 20260902200906 | 38 | 34 | 4.8 | 9.7 | 0.00 | 0.00 | 0.00 | 36 | 1014.9 |
| 20260902200401 | 38 | 23 | 4.8 | 9.7 | 0.00 | 0.00 | 0.00 | 37 | 1015.1 |
| 20260902195856 | 38 | 137 | 1.6 | 6.4 | 0.00 | 0.00 | 0.00 | 38 | 1015.0 |
| 20260902195356 | 38 | 248 | 6.4 | 9.7 | 0.00 | 0.00 | 0.00 | 37 | 1015.1 |
| 20260902194851 | 38 | 56 | 6.4 | 9.7 | 0.00 | 0.00 | 0.00 | 37 | 1015.5 |
| 20260902194345 | 38 | 252 | 6.4 | 6.4 | 0.00 | 0.00 | 0.00 | 37 | 1015.4 |
| 20260902193840 | 38 | 36 | 3.2 | 11.3 | 0.00 | 0.00 | 0.00 | 38 | 1015.5 |
| 20260902193336 | 38 | 252 | 3.2 | 11.3 | 0.00 | 0.00 | 0.00 | 37 | 1015.6 |
| 20260902192835 | 38 | 153 | 1.6 | 4.8 | 0.00 | 0.00 | 0.00 | 39 | 1015.6 |
| 20260902192333 | 37 | 334 | 3.2 | 6.4 | 0.00 | 0.00 | 0.00 | 40 | 1015.7 |
| 20260902191828 | 38 | 174 | 0.0 | 1.6 | 0.00 | 0.00 | 0.00 | 38 | 1015.7 |
| 20260902191324 | 38 | 214 | 1.6 | 9.7 | 0.00 | 0.00 | 0.00 | 39 | 1015.9 |
| 20260902190819 | 37 | 222 | 6.4 | 6.4 | 0.00 | 0.00 | 0.00 | 39 | 1015.9 |
| 20260902190318 | 37 | 36 | 1.6 | 4.8 | 0.00 | 0.00 | 0.00 | 41 | 1015.8 |
| 20260902185814 | 37 | 263 | 1.6 | 6.4 | 0.00 | 0.00 | 0.00 | 39 | 1015.9 |
| 20260902185309 | 37 | 305 | 4.8 | 6.4 | 0.00 | 0.00 | 0.00 | 39 | 1016.2 |
| 20260902184805 | 37 | 288 | 3.2 | 6.4 | 0.00 | 0.00 | 0.00 | 39 | 1016.1 |
| 20260902184300 | 37 | 340 | 0.0 | 4.8 | 0.00 | 0.00 | 0.00 | 39 | 1016.2 |
| 20260902183755 | 37 | 51 | 0.0 | 9.7 | 0.00 | 0.00 | 0.00 | 39 | 1016.4 |
| 20260902183252 | 37 | 269 | 3.2 | 6.4 | 0.00 | 0.00 | 0.00 | 39 | 1016.5 |
| 20260902182748 | 37 | 237 | 3.2 | 6.4 | 0.00 | 0.00 | 0.00 | 39 | 1016.8 |
| 20260902182244 | 37 | 215 | 1.6 | 6.4 | 0.00 | 0.00 | 0.00 | 40 | 1016.5 |
| 20260902181740 | 37 | 281 | 6.4 | 12.9 | 0.00 | 0.00 | 0.00 | 40 | 1016.7 |
| 20260902181240 | 36 | 19 | 6.4 | 12.9 | 0.00 | 0.00 | 0.00 | 40 | 1016.8 |
| 20260902180735 | 37 | 57 | 3.2 | 6.4 | 0.00 | 0.00 | 0.00 | 40 | 1016.8 |
| 20260902180230 | 37 | 217 | 4.8 | 11.3 | 0.00 | 0.00 | 0.00 | 40 | 1016.9 |
| 20260902175724 | 36 | 161 | 3.2 | 9.7 | 0.00 | 0.00 | 0.00 | 41 | 1017.2 |
| 20260902175221 | 37 | 76 | 1.6 | 9.7 | 0.00 | 0.00 | 0.00 | 42 | 1017.2 |
| 20260902174716 | 37 | 310 | 8.0 | 11.3 | 0.00 | 0.00 | 0.00 | 40 | 1017.3 |
| 20260902174212 | 36 | 257 | 4.8 | 9.7 | 0.00 | 0.00 | 0.00 | 42 | 1017.3 |
| 20260902173708 | 36 | 83 | 4.8 | 9.7 | 0.00 | 0.00 | 0.00 | 42 | 1017.2 |
| 20260902173202 | 36 | 301 | 6.4 | 12.9 | 0.00 | 0.00 | 0.00 | 42 | 1017.5 |
| 20260902172657 | 35 | 266 | 6.4 | 17.7 | 0.00 | 0.00 | 0.00 | 43 | 1017.5 |
| 20260902172156 | 36 | 301 | 1.6 | 9.7 | 0.00 | 0.00 | 0.00 | 43 | 1017.8 |
| 20260902171651 | 36 | 237 | 3.2 | 11.3 | 0.00 | 0.00 | 0.00 | 43 | 1017.5 |
| 20260902171147 | 36 | 262 | 3.2 | 6.4 | 0.00 | 0.00 | 0.00 | 43 | 1017.8 |
| 20260902170643 | 36 | 232 | 3.2 | 4.8 | 0.00 | 0.00 | 0.00 | 44 | 1017.8 |
| 20260902170137 | 35 | 328 | 6.4 | 11.3 | 0.00 | 0.00 | 0.00 | 44 | 1017.8 |
| 20260902165633 | 36 | 259 | 4.8 | 6.4 | 0.00 | 0.00 | 0.00 | 44 | 1017.9 |
| 20260902165127 | 35 | 312 | 0.0 | 6.4 | 0.00 | 0.00 | 0.00 | 47 | 1018.0 |
| 20260902164622 | 35 | 232 | 3.2 | 6.4 | 0.00 | 0.00 | 0.00 | 45 | 1017.9 |
| 20260902164121 | 35 | 246 | 4.8 | 11.3 | 0.00 | 0.00 | 0.00 | 46 | 1018.1 |
| 20260902163617 | 35 | 190 | 6.4 | 11.3 | 0.00 | 0.00 | 0.00 | 45 | 1018.1 |
| 20260902163115 | 35 | 251 | 1.6 | 6.4 | 0.00 | 0.00 | 0.00 | 46 | 1018.1 |
| 20260902162614 | 34 | 222 | 0.0 | 9.7 | 0.00 | 0.00 | 0.00 | 47 | 1018.2 |
| 20260902162109 | 34 | 40 | 1.6 | 6.4 | 0.00 | 0.00 | 0.00 | 47 | 1018.1 |
| 20260902161605 | 34 | 71 | 6.4 | 9.7 | 0.00 | 0.00 | 0.00 | 48 | 1018.1 |
| 20260902161101 | 35 | 359 | 0.0 | 6.4 | 0.00 | 0.00 | 0.00 | 47 | 1018.1 |
| 20260902160556 | 34 | 216 | 0.0 | 4.8 | 0.00 | 0.00 | 0.00 | 48 | 1017.9 |
| 20260902160051 | 34 | 267 | 3.2 | 6.4 | 0.00 | 0.00 | 0.00 | 48 | 1018.0 |
| 20260902155544 | 34 | 263 | 4.8 | 9.7 | 0.00 | 0.00 | 0.00 | 49 | 1018.1 |
| 20260902155043 | 33 | 179 | 3.2 | 4.8 | 0.00 | 0.00 | 0.00 | 50 | 1018.2 |
| 20260902154539 | 33 | 202 | 3.2 | 11.3 | 0.00 | 0.00 | 0.00 | 51 | 1017.9 |
| 20260902154039 | 33 | 167 | 3.2 | 6.4 | 0.00 | 0.00 | 0.00 | 51 | 1018.1 |
| 20260902153537 | 33 | 197 | 4.8 | 11.3 | 0.00 | 0.00 | 0.00 | 50 | 1018.2 |
| 20260902153033 | 32 | 233 | 6.4 | 9.7 | 0.00 | 0.00 | 0.00 | 52 | 1018.2 |
| 20260902152529 | 32 | 175 | 8.0 | 11.3 | 0.00 | 0.00 | 0.00 | 52 | 1018.2 |
| 20260902152024 | 32 | 254 | 1.6 | 12.9 | 0.00 | 0.00 | 0.00 | 53 | 1018.2 |
| 20260902151520 | 32 | 229 | 4.8 | 16.1 | 0.00 | 0.00 | 0.00 | 53 | 1018.2 |
| 20260902151019 | 32 | 230 | 1.6 | 17.7 | 0.00 | 0.00 | 0.00 | 53 | 1018.1 |
| 20260902150515 | 31 | 262 | 6.4 | 12.9 | 0.00 | 0.00 | 0.00 | 54 | 1018.4 |
| 20260902150010 | 32 | 333 | 3.2 | 12.9 | 0.00 | 0.00 | 0.00 | 54 | 1018.2 |
| 20260902145505 | 31 | 312 | 4.8 | 11.3 | 0.00 | 0.00 | 0.00 | 54 | 1018.3 |
| 20260902144959 | 31 | 65 | 3.2 | 11.3 | 0.00 | 0.00 | 0.00 | 55 | 1018.4 |
| 20260902144455 | 31 | 303 | 3.2 | 11.3 | 0.00 | 0.00 | 0.00 | 56 | 1018.3 |
| 20260902143950 | 31 | 274 | 3.2 | 9.7 | 0.00 | 0.00 | 0.00 | 56 | 1018.2 |
| 20260902143446 | 31 | 78 | 1.6 | 11.3 | 0.00 | 0.00 | 0.00 | 56 | 1018.3 |
| 20260902142941 | 30 | 102 | 4.8 | 12.9 | 0.00 | 0.00 | 0.00 | 57 | 1018.3 |
| 20260902142437 | 30 | 232 | 6.4 | 12.9 | 0.00 | 0.00 | 0.00 | 58 | 1018.1 |
| 20260902141932 | 30 | 263 | 3.2 | 20.9 | 0.00 | 0.00 | 0.00 | 59 | 1018.2 |
| 20260902141427 | 30 | 320 | 6.4 | 11.3 | 0.00 | 0.00 | 0.00 | 58 | 1018.1 |
| 20260902140926 | 30 | 31 | 1.6 | 6.4 | 0.00 | 0.00 | 0.00 | 59 | 1018.2 |
| 20260902140421 | 30 | 187 | 1.6 | 9.7 | 0.00 | 0.00 | 0.00 | 59 | 1018.2 |
| 20260902135915 | 30 | 189 | 6.4 | 11.3 | 0.00 | 0.00 | 0.00 | 59 | 1018.4 |
| 20260902135412 | 29 | 36 | 1.6 | 9.7 | 0.00 | 0.00 | 0.00 | 61 | 1018.2 |
| 20260902134910 | 29 | 273 | 4.8 | 9.7 | 0.00 | 0.00 | 0.00 | 61 | 1018.3 |
| 20260902134407 | 28 | 287 | 8.0 | 12.9 | 0.00 | 0.00 | 0.00 | 62 | 1018.1 |
| 20260902133906 | 28 | 262 | 3.2 | 6.4 | 0.00 | 0.00 | 0.00 | 62 | 1018.3 |
| 20260902133401 | 28 | 265 | 1.6 | 3.2 | 0.00 | 0.00 | 0.00 | 62 | 1018.2 |
| 20260902132856 | 28 | 260 | 4.8 | 14.5 | 0.00 | 0.00 | 0.00 | 63 | 1018.3 |
| 20260902132351 | 28 | 145 | 4.8 | 6.4 | 0.00 | 0.00 | 0.00 | 63 | 1018.2 |
| 20260902131847 | 28 | 237 | 1.6 | 11.3 | 0.00 | 0.00 | 0.00 | 64 | 1018.2 |
| 20260902131344 | 27 | 172 | 3.2 | 6.4 | 0.00 | 0.00 | 0.00 | 65 | 1018.2 |
| 20260902130842 | 27 | 274 | 4.8 | 11.3 | 0.00 | 0.00 | 0.00 | 65 | 1018.2 |
| 20260902130338 | 27 | 190 | 4.8 | 6.4 | 0.00 | 0.00 | 0.00 | 65 | 1018.2 |
| 20260902125833 | 27 | 230 | 4.8 | 11.3 | 0.00 | 0.00 | 0.00 | 65 | 1018.2 |
| 20260902125329 | 27 | 342 | 3.2 | 4.8 | 0.00 | 0.00 | 0.00 | 65 | 1017.9 |
| 20260902124825 | 27 | 223 | 1.6 | 9.7 | 0.00 | 0.00 | 0.00 | 65 | 1017.9 |
| 20260902124321 | 27 | 223 | 1.6 | 9.7 | 0.00 | 0.00 | 0.00 | 65 | 1017.9 |
| 20260902123815 | 27 | 242 | 4.8 | 9.7 | 0.00 | 0.00 | 0.00 | 65 | 1017.8 |
| 20260902123312 | 27 | 127 | 1.6 | 12.9 | 0.00 | 0.00 | 0.00 | 66 | 1017.8 |
| 20260902122810 | 27 | 228 | 3.2 | 6.4 | 0.00 | 0.00 | 0.00 | 66 | 1017.8 |
| 20260902122307 | 27 | 211 | 3.2 | 6.4 | 0.00 | 0.00 | 0.00 | 67 | 1017.7 |
| 20260902121806 | 27 | 276 | 0.0 | 3.2 | 0.00 | 0.00 | 0.00 | 67 | 1017.8 |
| 20260902121301 | 27 | 101 | 1.6 | 9.7 | 0.00 | 0.00 | 0.00 | 67 | 1017.6 |
| 20260902120757 | 26 | 62 | 1.6 | 4.8 | 0.00 | 0.00 | 0.00 | 67 | 1017.6 |
| 20260902120253 | 26 | 309 | 1.6 | 3.2 | 0.00 | 0.00 | 0.00 | 68 | 1017.6 |
| 20260902115748 | 26 | 45 | 0.0 | 1.6 | 0.00 | 0.00 | 0.00 | 67 | 1017.5 |
| 20260902115244 | 26 | 46 | 0.0 | 3.2 | 0.00 | 0.00 | 0.00 | 67 | 1017.4 |
| 20260902114740 | 26 | 46 | 0.0 | 3.2 | 0.00 | 0.00 | 0.00 | 67 | 1017.3 |
| 20260902114235 | 26 | 81 | 0.0 | 1.6 | 0.00 | 0.00 | 0.00 | 66 | 1017.4 |
| 20260902113729 | 26 | 182 | 0.0 | 1.6 | 0.00 | 0.00 | 0.00 | 66 | 1017.3 |
| 20260902113225 | 26 | 182 | 0.0 | 1.6 | 0.00 | 0.00 | 0.00 | 66 | 1017.3 |
| 20260902112719 | 26 | 129 | 0.0 | 0.0 | 0.00 | 0.00 | 0.00 | 66 | 1017.3 |
| 20260902112216 | 26 | 129 | 0.0 | 3.2 | 0.00 | 0.00 | 0.00 | 66 | 1017.2 |
| 20260902111711 | 27 | 102 | 0.0 | 0.0 | 0.00 | 0.00 | 0.00 | 65 | 1017.2 |
| 20260902111207 | 27 | 102 | 0.0 | 0.0 | 0.00 | 0.00 | 0.00 | 65 | 1017.2 |
| 20260902110703 | 27 | 102 | 0.0 | 1.6 | 0.00 | 0.00 | 0.00 | 64 | 1017.1 |
| 20260902110159 | 27 | 264 | 0.0 | 0.0 | 0.00 | 0.00 | 0.00 | 64 | 1017.1 |
| 20260902105658 | 27 | 223 | 0.0 | 0.0 | 0.00 | 0.00 | 0.00 | 64 | 1017.1 |
| 20260902105154 | 27 | 298 | 0.0 | 1.6 | 0.00 | 0.00 | 0.00 | 64 | 1017.0 |
| 20260902104649 | 27 | 135 | 0.0 | 1.6 | 0.00 | 0.00 | 0.00 | 63 | 1017.1 |
| 20260902104144 | 27 | 7 | 0.0 | 1.6 | 0.00 | 0.00 | 0.00 | 63 | 1017.3 |
| 20260902103643 | 27 | 7 | 0.0 | 3.2 | 0.00 | 0.00 | 0.00 | 63 | 1017.2 |
| 20260902103139 | 27 | 58 | 0.0 | 1.6 | 0.00 | 0.00 | 0.00 | 63 | 1017.2 |
| 20260902102635 | 27 | 53 | 0.0 | 3.2 | 0.00 | 0.00 | 0.00 | 63 | 1017.1 |
| 20260902102132 | 27 | 53 | 1.6 | 1.6 | 0.00 | 0.00 | 0.00 | 62 | 1017.1 |
| 20260902101627 | 27 | 53 | 0.0 | 0.0 | 0.00 | 0.00 | 0.00 | 62 | 1017.1 |
| 20260902101126 | 28 | 99 | 1.6 | 4.8 | 0.00 | 0.00 | 0.00 | 61 | 1017.0 |
| 20260902100621 | 28 | 270 | 0.0 | 3.2 | 0.00 | 0.00 | 0.00 | 61 | 1016.9 |
| 20260902100116 | 28 | 298 | 0.0 | 1.6 | 0.00 | 0.00 | 0.00 | 62 | 1017.0 |
| 20260902095615 | 28 | 246 | 1.6 | 3.2 | 0.00 | 0.00 | 0.00 | 61 | 1017.0 |
| 20260902095109 | 28 | 312 | 1.6 | 9.7 | 0.00 | 0.00 | 0.00 | 61 | 1016.9 |
| 20260902094604 | 28 | 103 | 1.6 | 4.8 | 0.00 | 0.00 | 0.00 | 61 | 1016.9 |
| 20260902094101 | 28 | 244 | 1.6 | 6.4 | 0.00 | 0.00 | 0.00 | 61 | 1017.0 |
| 20260902093559 | 28 | 279 | 0.0 | 3.2 | 0.00 | 0.00 | 0.00 | 61 | 1016.9 |
| 20260902093054 | 28 | 283 | 0.0 | 4.8 | 0.00 | 0.00 | 0.00 | 61 | 1016.9 |
| 20260902092549 | 28 | 283 | 0.0 | 4.8 | 0.00 | 0.00 | 0.00 | 61 | 1016.9 |
| 20260902092044 | 28 | 246 | 0.0 | 1.6 | 0.00 | 0.00 | 0.00 | 60 | 1016.9 |
| 20260902091534 | 28 | 307 | 3.2 | 4.8 | 0.00 | 0.00 | 0.00 | 60 | 1017.0 |
| 20260902091030 | 28 | 70 | 3.2 | 4.8 | 0.00 | 0.00 | 0.00 | 60 | 1017.1 |
| 20260902090526 | 28 | 18 | 1.6 | 3.2 | 0.00 | 0.00 | 0.00 | 60 | 1016.8 |
| 20260902090024 | 28 | 24 | 3.2 | 9.7 | 0.00 | 0.00 | 0.00 | 59 | 1016.9 |
| 20260902085518 | 28 | 57 | 4.8 | 6.4 | 0.00 | 0.00 | 0.00 | 59 | 1016.7 |
| 20260902085014 | 28 | 165 | 4.8 | 6.4 | 0.00 | 0.00 | 0.00 | 59 | 1016.8 |
| 20260902084510 | 28 | 327 | 0.0 | 3.2 | 0.00 | 0.00 | 0.00 | 59 | 1016.7 |
| 20260902084006 | 28 | 231 | 3.2 | 6.4 | 0.00 | 0.00 | 0.00 | 58 | 1016.9 |
| 20260902083501 | 28 | 242 | 3.2 | 4.8 | 0.00 | 0.00 | 0.00 | 58 | 1017.1 |
| 20260902082955 | 28 | 285 | 3.2 | 6.4 | 0.00 | 0.00 | 0.00 | 57 | 1016.8 |
| 20260902082450 | 28 | 285 | 3.2 | 9.7 | 0.00 | 0.00 | 0.00 | 57 | 1016.9 |
| 20260902081946 | 28 | 343 | 1.6 | 4.8 | 0.00 | 0.00 | 0.00 | 57 | 1016.8 |
| 20260902081443 | 28 | 90 | 1.6 | 4.8 | 0.00 | 0.00 | 0.00 | 57 | 1016.8 |
| 20260902080938 | 28 | 154 | 3.2 | 4.8 | 0.00 | 0.00 | 0.00 | 57 | 1016.9 |
| 20260902080433 | 28 | 40 | 3.2 | 4.8 | 0.00 | 0.00 | 0.00 | 57 | 1016.8 |